Elko, NV

9:10 AM PST on January 23, 2017 (GMT -0800)
Elko Regional

Weather History for KEKO - May, 2013

Change the Weather History Date:

Thursday, May 23, 2013

  Actual Average Record
Temperature  
Mean Temperature 48 °F 55 °F  
Max Temperature 63 °F 71 °F 89 °F (2001)
Min Temperature 33 °F 39 °F 23 °F (1966)
Degree Days  
Heating Degree Days 17 10  
Month to date heating degree days 231 294  
Since 1 July heating degree days 6631 6865  
Cooling Degree Days 0 0  
Month to date cooling degree days 4 0  
Year to date cooling degree days 4 0  
Moisture  
Dew Point 13 °F    
Average Humidity 32    
Maximum Humidity 52    
Minimum Humidity 12    
Precipitation  
Precipitation 0.00 in 0.04 in 0.88 in (2011)
Month to date precipitation 0.08 0.72  
Year to date precipitation 2.28 4.65  
Snow  
Snow 0.00 in 0.00 in 0.40 in (1959)
Month to date snowfall 0.0 0.4  
Since 1 July snowfall 42.2 41.2  
Snow Depth 0.00 in    
Sea Level Pressure  
Sea Level Pressure 29.82 in    
Wind  
Wind Speed 10 mph (WNW)    
Max Wind Speed 28 mph    
Max Gust Speed 36 mph    
Visibility 10 miles    
Events      
T = Trace of Precipitation, MM = Missing Value Source: NWS Daily Summary

Daily Weather History Graph

Daily Weather History Graph

Search for Another Location

Airport or City:

Trip Planner

Search our weather history database for the weather conditions in past years. The results will help you decide how hot, cold, wet, or windy it might be!

Date:

Astronomy

May. 23, 2013 Rise Set
Actual Time 5:18 AM PDT 8:01 PM PDT
Civil Twilight 4:46 AM PDT 8:33 PM PDT
Nautical Twilight 4:06 AM PDT 9:13 PM PDT
Astronomical Twilight 3:21 AM PDT 9:59 PM PDT
Moon 6:38 PM PDT 4:07 AM PDT
Length of Visible Light 15h 46m
Length of Day
14h 42m
Waxing Gibbous, 97% of the Moon is Illuminated
May 23
Waxing Gibbous
May 24
Full
May 31
Last Quarter
Jun 8
New
Jun 16
First Quarter

Hourly Weather History & Observations

Time (PDT) Temp. Windchill Dew Point Humidity Pressure Visibility Wind Dir Wind Speed Gust Speed Precip Events Conditions
12:56 AM 41.0 °F 37.1 °F 18.0 °F 40% 29.81 in 10.0 mi SW 5.8 mph - N/A   Clear
1:56 AM 43.0 °F 39.5 °F 15.1 °F 32% 29.79 in 10.0 mi NE 5.8 mph - N/A   Clear
2:56 AM 42.1 °F 37.7 °F 19.0 °F 40% 29.80 in 10.0 mi NE 6.9 mph - N/A   Clear
3:56 AM 39.9 °F 34.5 °F 19.9 °F 45% 29.81 in 10.0 mi NE 8.1 mph - N/A   Clear
4:56 AM 37.9 °F 32.1 °F 21.9 °F 53% 29.80 in 10.0 mi East 8.1 mph - N/A   Clear
5:56 AM 37.0 °F 30.4 °F 21.9 °F 54% 29.82 in 10.0 mi NE 9.2 mph - N/A   Clear
6:56 AM 42.1 °F 36.1 °F 14.0 °F 32% 29.81 in 10.0 mi ENE 10.4 mph - N/A   Clear
7:56 AM 46.0 °F 40.6 °F 9.0 °F 22% 29.80 in 10.0 mi ENE 11.5 mph 18.4 mph N/A   Clear
8:56 AM 51.1 °F - 10.9 °F 20% 29.78 in 10.0 mi NE 15.0 mph - N/A   Clear
9:56 AM 53.1 °F - 14.0 °F 21% 29.76 in 10.0 mi Variable 6.9 mph 16.1 mph N/A   Clear
10:56 AM 55.0 °F - 14.0 °F 20% 29.75 in 10.0 mi Variable 3.5 mph - N/A   Clear
11:56 AM 59.0 °F - 15.1 °F 18% 29.73 in 10.0 mi Variable 6.9 mph - N/A   Clear
12:56 PM 60.1 °F - 15.1 °F 17% 29.74 in 10.0 mi SSW 8.1 mph 18.4 mph N/A   Mostly Cloudy
1:56 PM 59.0 °F - 12.9 °F 16% 29.75 in 10.0 mi SW 6.9 mph 16.1 mph N/A   Overcast
2:56 PM 60.1 °F - 8.1 °F 13% 29.75 in 10.0 mi West 16.1 mph 27.6 mph N/A   Partly Cloudy
3:03 PM 60.8 °F - 8.6 °F 13% 29.82 in 10.0 mi NW 12.7 mph 21.9 mph N/A   Mostly Cloudy
3:56 PM 62.1 °F - 10.9 °F 13% 29.77 in 10.0 mi West 26.5 mph 35.7 mph N/A   Scattered Clouds
4:56 PM 57.9 °F - 10.0 °F 15% 29.82 in 10.0 mi West 20.7 mph 29.9 mph N/A   Partly Cloudy
5:56 PM 60.1 °F - 10.0 °F 14% 29.83 in 10.0 mi West 17.3 mph 25.3 mph N/A   Clear
6:56 PM 57.0 °F - 8.1 °F 14% 29.86 in 10.0 mi West 20.7 mph 26.5 mph N/A   Clear
7:56 PM 52.0 °F - 10.9 °F 19% 29.90 in 10.0 mi West 16.1 mph 25.3 mph N/A   Clear
8:56 PM 46.9 °F - 12.0 °F 24% 29.93 in 10.0 mi South 4.6 mph - N/A   Clear
9:56 PM 42.1 °F 39.2 °F 12.9 °F 31% 29.97 in 10.0 mi SSW 4.6 mph - N/A   Clear
10:56 PM 37.0 °F 33.3 °F 12.9 °F 37% 30.01 in 10.0 mi SW 4.6 mph - N/A   Clear
11:56 PM 37.9 °F - 12.0 °F 35% 29.99 in 10.0 mi Calm Calm - N/A   Clear